Weather History for Algona, IA

Change the Weather History Date:

Wednesday, February 19, 2014

  Actual Average Record
Temperature  
Mean Temperature 37 °F -  
Max Temperature 48 °F 31 °F 48 °F (2014)
Min Temperature 26 °F 17 °F -7 °F (2008)
Degree Days  
Heating Degree Days 28    
Moisture  
Dew Point 30 °F    
Average Humidity 81    
Maximum Humidity 100    
Minimum Humidity 54    
Precipitation  
Precipitation 0.00 in - - ()
Sea Level Pressure  
Sea Level Pressure 29.80 in    
Wind  
Wind Speed 11 mph (SSW)    
Max Wind Speed 21 mph    
Max Gust Speed 26 mph    
Visibility 10 miles    
Events      
Averages and records for this station are not official NWS values.
T = Trace of Precipitation, MM = Missing Value Source: NWS Daily Summary

Daily Weather History Graph

Daily Weather History Graph

Search for Another Location

Airport:

Trip Planner

Search our weather history database for the weather conditions in past years. The results will help you decide how hot, cold, wet, or windy it might be!

Date:

Astronomy

Feb. 19, 2014 Rise Set
Actual Time 7:08 AM CST 5:53 PM CST
Civil Twilight 6:39 AM CST 6:22 PM CST
Nautical Twilight 6:06 AM CST 6:55 PM CST
Astronomical Twilight 5:33 AM CST 7:28 PM CST
Moon 10:56 PM CST (2/19) 9:07 AM CST (2/19)
Length of Visible Light 11h 42m
Length of Day
10h 44m
Waning Gibbous, 79% of the Moon is Illuminated
Feb 19
Waning Gibbous
Feb 22
Last Quarter
Mar 1
New
Mar 8
First Quarter
Mar 16
Full

Hourly Weather History & Observations

Time (CST) Temp. Windchill Dew Point Humidity Pressure Visibility Wind Dir Wind Speed Gust Speed Precip Events Conditions
12:15 AM 32.0 °F 23.6 °F 30.2 °F 93% 29.84 in 10.0 mi WNW 10.4 mph - N/A   Clear
12:35 AM 32.0 °F 22.5 °F 30.2 °F 93% 29.84 in 10.0 mi WNW 12.7 mph - N/A   Clear
12:55 AM 32.0 °F 24.2 °F 28.4 °F 87% 29.84 in 10.0 mi WNW 9.2 mph - N/A   Clear
1:15 AM 30.2 °F 21.9 °F 28.4 °F 93% 29.84 in 10.0 mi WNW 9.2 mph - N/A   Clear
1:35 AM 30.2 °F 21.9 °F 28.4 °F 93% 29.84 in 10.0 mi WNW 9.2 mph - N/A   Clear
1:55 AM 30.2 °F 23.4 °F 28.4 °F 93% 29.84 in 10.0 mi WNW 6.9 mph - N/A   Clear
2:15 AM 28.4 °F 19.1 °F 26.6 °F 93% 29.84 in 10.0 mi West 10.4 mph - N/A   Clear
2:35 AM 28.4 °F 19.7 °F 26.6 °F 93% 29.85 in 10.0 mi WNW 9.2 mph - N/A   Clear
2:55 AM 28.4 °F 19.7 °F 26.6 °F 93% 29.85 in 10.0 mi WNW 9.2 mph - N/A   Clear
3:15 AM 28.4 °F 20.4 °F 26.6 °F 93% 29.84 in 10.0 mi WNW 8.1 mph - N/A   Clear
3:35 AM 28.4 °F 20.4 °F 24.8 °F 86% 29.85 in 10.0 mi West 8.1 mph - N/A   Clear
3:55 AM 26.6 °F 18.2 °F 24.8 °F 93% 29.85 in 10.0 mi WSW 8.1 mph - N/A   Clear
4:15 AM 26.6 °F 20.0 °F 24.8 °F 93% 29.85 in 10.0 mi West 5.8 mph - N/A   Clear
4:35 AM 28.4 °F 19.7 °F 26.6 °F 93% 29.85 in 10.0 mi WSW 9.2 mph - N/A   Clear
4:55 AM 28.4 °F 19.7 °F 26.6 °F 93% 29.86 in 10.0 mi SW 9.2 mph - N/A   Clear
5:15 AM 26.6 °F 18.2 °F 26.6 °F 100% 29.86 in 8.0 mi WSW 8.1 mph - N/A   Clear
5:30 AM 26.6 °F 18.2 °F 26.6 °F 100% 29.86 in 8.0 mi WSW 8.1 mph - N/A   Clear
5:55 AM 26.6 °F 16.2 °F 26.6 °F 100% 29.87 in 9.0 mi SW 11.5 mph - N/A   Clear
6:15 AM 26.6 °F 17.5 °F 26.6 °F 100% 29.87 in 9.0 mi WSW 9.2 mph - N/A   Clear
6:35 AM 26.6 °F 16.8 °F 26.6 °F 100% 29.87 in 10.0 mi WSW 10.4 mph - N/A   Clear
6:55 AM 26.6 °F 17.5 °F 26.6 °F 100% 29.87 in 10.0 mi WSW 9.2 mph - N/A   Clear
7:15 AM 26.6 °F 16.2 °F 26.6 °F 100% 29.87 in 10.0 mi SW 11.5 mph - N/A   Clear
7:35 AM 28.4 °F 19.1 °F 26.6 °F 93% 29.87 in 10.0 mi SW 10.4 mph - N/A   Clear
7:55 AM 28.4 °F 19.1 °F 26.6 °F 93% 29.87 in 10.0 mi SW 10.4 mph - N/A   Clear
8:15 AM 28.4 °F 21.2 °F 26.6 °F 93% 29.88 in 10.0 mi SW 6.9 mph - N/A   Clear
8:35 AM 30.2 °F 22.6 °F 26.6 °F 86% 29.87 in 10.0 mi WSW 8.1 mph - N/A   Clear
8:55 AM 30.2 °F 23.4 °F 28.4 °F 93% 29.87 in 10.0 mi SW 6.9 mph - N/A   Clear
9:15 AM 32.0 °F 25.6 °F 28.4 °F 87% 29.87 in 10.0 mi WSW 6.9 mph - N/A   Clear
9:35 AM 32.0 °F 23.6 °F 28.4 °F 87% 29.87 in 10.0 mi WSW 10.4 mph - N/A   Clear
9:55 AM 33.8 °F 27.7 °F 30.2 °F 87% 29.87 in 10.0 mi WSW 6.9 mph - N/A   Clear
10:15 AM 33.8 °F 26.4 °F 30.2 °F 87% 29.87 in 10.0 mi SW 9.2 mph - N/A   Clear
10:35 AM 33.8 °F 27.0 °F 30.2 °F 87% 29.88 in 10.0 mi SW 8.1 mph - N/A   Clear
10:55 AM 37.4 °F 30.8 °F 32.0 °F 81% 29.88 in 10.0 mi SW 9.2 mph - N/A   Clear
11:15 AM 37.4 °F 29.8 °F 32.0 °F 81% 29.88 in 10.0 mi SSW 11.5 mph - N/A   Clear
11:35 AM 37.4 °F 29.8 °F 32.0 °F 81% 29.87 in 10.0 mi SSW 11.5 mph - N/A   Clear
11:55 AM 39.2 °F 32.0 °F 33.8 °F 81% 29.86 in 10.0 mi SSW 11.5 mph - N/A   Clear
12:15 PM 39.2 °F 31.6 °F 33.8 °F 81% 29.85 in 10.0 mi SSW 12.7 mph - N/A   Clear
12:35 PM 41.0 °F 34.3 °F 33.8 °F 76% 29.84 in 10.0 mi SSW 11.5 mph - N/A   Clear
12:55 PM 42.8 °F 36.6 °F 35.6 °F 76% 29.83 in 10.0 mi SSW 11.5 mph - N/A   Clear
1:15 PM 44.6 °F 38.8 °F 33.8 °F 66% 29.82 in 10.0 mi SSW 11.5 mph - N/A   Clear
1:35 PM 46.4 °F 40.7 °F 33.8 °F 62% 29.81 in 10.0 mi SSW 12.7 mph - N/A   Clear
1:55 PM 46.4 °F 39.8 °F 33.8 °F 62% 29.80 in 10.0 mi SSW 16.1 mph - N/A   Clear
2:15 PM 48.2 °F - 33.8 °F 58% 29.79 in 10.0 mi South 13.8 mph - N/A   Clear
2:35 PM 48.2 °F - 33.8 °F 58% 29.78 in 10.0 mi SSW 15.0 mph - N/A   Clear
2:55 PM 48.2 °F - 33.8 °F 58% 29.77 in 10.0 mi South 12.7 mph - N/A   Clear
3:15 PM 48.2 °F - 32.0 °F 54% 29.77 in 10.0 mi South 15.0 mph - N/A   Clear
3:35 PM 48.2 °F - 33.8 °F 58% 29.76 in 10.0 mi South 13.8 mph - N/A   Clear
3:55 PM 48.2 °F - 33.8 °F 58% 29.75 in 10.0 mi South 17.3 mph - N/A   Clear
4:15 PM 48.2 °F - 32.0 °F 54% 29.75 in 10.0 mi South 16.1 mph 21.9 mph N/A   Clear
4:35 PM 46.4 °F 39.8 °F 32.0 °F 57% 29.74 in 10.0 mi South 16.1 mph - N/A   Clear
4:55 PM 44.6 °F 37.2 °F 32.0 °F 61% 29.74 in 10.0 mi South 17.3 mph - N/A   Clear
5:15 PM 44.6 °F 38.4 °F 32.0 °F 61% 29.73 in 10.0 mi SSE 12.7 mph - N/A   Clear
5:35 PM 42.8 °F 35.8 °F 32.0 °F 66% 29.72 in 10.0 mi SSE 13.8 mph - N/A   Clear
5:55 PM 41.0 °F 33.9 °F 33.8 °F 76% 29.72 in 10.0 mi SSE 12.7 mph 20.7 mph N/A   Clear
6:15 PM 41.0 °F 32.8 °F 33.8 °F 76% 29.72 in 10.0 mi SSE 16.1 mph - N/A   Scattered Clouds
6:35 PM 39.2 °F 30.8 °F 33.8 °F 81% 29.71 in 10.0 mi SSE 15.0 mph - N/A   Scattered Clouds
6:55 PM 39.2 °F 30.8 °F 33.8 °F 81% 29.71 in 10.0 mi SSE 15.0 mph - N/A   Clear
7:15 PM 39.2 °F 30.8 °F 32.0 °F 75% 29.72 in 10.0 mi SSE 15.0 mph - N/A   Clear
7:35 PM 37.4 °F 28.5 °F 32.0 °F 81% 29.71 in 10.0 mi SSE 15.0 mph - N/A   Clear
7:55 PM 37.4 °F 27.2 °F 32.0 °F 81% 29.70 in 10.0 mi SSE 19.6 mph - N/A   Clear
8:15 PM 37.4 °F 27.8 °F 32.0 °F 81% 29.70 in 10.0 mi SSE 17.3 mph 25.3 mph N/A   Clear
8:35 PM 37.4 °F 27.5 °F 32.0 °F 81% 29.70 in 10.0 mi SSE 18.4 mph - N/A   Clear
8:55 PM 37.4 °F 27.8 °F 32.0 °F 81% 29.70 in 10.0 mi SSE 17.3 mph - N/A   Partly Cloudy
9:15 PM 37.4 °F 27.8 °F 32.0 °F 81% 29.70 in 10.0 mi SSE 17.3 mph - N/A   Clear
9:35 PM 37.4 °F 27.5 °F 32.0 °F 81% 29.68 in 10.0 mi SSE 18.4 mph 25.3 mph N/A   Scattered Clouds
9:55 PM 37.4 °F 27.2 °F 30.2 °F 75% 29.68 in 10.0 mi SSE 19.6 mph 26.5 mph N/A   Partly Cloudy
10:15 PM 37.4 °F 27.2 °F 30.2 °F 75% 29.68 in 10.0 mi SSE 19.6 mph - N/A   Clear
10:35 PM 37.4 °F 26.9 °F 30.2 °F 75% 29.67 in 10.0 mi SSE 20.7 mph - N/A   Clear
10:55 PM 37.4 °F 27.2 °F 30.2 °F 75% 29.66 in 10.0 mi SSE 19.6 mph - N/A   Clear
11:15 PM 37.4 °F 29.3 °F 30.2 °F 75% 29.67 in 10.0 mi SSE 12.7 mph 20.7 mph N/A   Clear
11:35 PM 37.4 °F 29.3 °F 30.2 °F 75% 29.66 in 10.0 mi SSE 12.7 mph - N/A   Scattered Clouds
11:55 PM 37.4 °F 28.5 °F 30.2 °F 75% 29.65 in 10.0 mi SSE 15.0 mph - N/A   Mostly Cloudy